This is the latest recevied weather packets stored in our database for station/object KO4LFZ. If no packets are shown the sender has not sent any weather packets the latest 10 day(s).
| Time | Temp. | Humidity | Pressure | Rain* | Wind** | Luminosity | Snow |
|---|---|---|---|---|---|---|---|
| 1777427212 | 17.22° C | 99% | 1011.7 hPa | 0 mm | - | 0 W/m² | - |
| 1777426910 | 17.22° C | 99% | 1012.1 hPa | 0 mm | - | 0 W/m² | - |
| 1777426607 | 16.67° C | 99% | 1011.9 hPa | 0 mm | - | 0 W/m² | - |
| 1777426303 | 16.67° C | 99% | 1012.1 hPa | 0 mm | - | 0 W/m² | - |
| 1777425998 | 16.67° C | 99% | 1012.1 hPa | 0 mm | - | 0 W/m² | - |
| 1777425693 | 16.67° C | 99% | 1012 hPa | 0 mm | - | 0 W/m² | - |
| 1777425389 | 16.67° C | 99% | 1011.7 hPa | 0 mm | - | 0 W/m² | - |
| 1777425086 | 16.67° C | 99% | 1011.5 hPa | 0 mm | - | 0 W/m² | - |
| 1777424781 | 16.67° C | 99% | 1011.6 hPa | 0 mm | - | 0 W/m² | - |
| 1777424477 | 16.67° C | 99% | 1011.9 hPa | 0 mm | - | 0 W/m² | - |
| 1777424172 | 16.67° C | 99% | 1012.3 hPa | 0 mm | - | 0 W/m² | - |
| 1777423870 | 17.22° C | 99% | 1012.2 hPa | 0 mm | - | 0 W/m² | - |
| 1777423566 | 17.22° C | 99% | 1012.5 hPa | 1.78 mm | - | 0 W/m² | - |
| 1777423262 | 17.78° C | 99% | 1012.8 hPa | 1.78 mm | - | 0 W/m² | - |
| 1777422956 | 17.78° C | 99% | 1012.9 hPa | 0 mm | - | 0 W/m² | - |
| 1777422652 | 17.78° C | 99% | 1012.9 hPa | 0 mm | - | 1 W/m² | - |
| 1777422347 | 18.33° C | 99% | 1013.3 hPa | 0 mm | - | 0 W/m² | - |
| 1777422042 | 18.33° C | 99% | 1013.5 hPa | 0 mm | - | 0 W/m² | - |
| 1777421737 | 18.33° C | 99% | 1013.3 hPa | 0 mm | - | 2 W/m² | - |
| 1777421433 | 18.33° C | 99% | 1013.6 hPa | 18.03 mm | - | 4 W/m² | - |
| 1777421129 | 18.33° C | 99% | 1013.6 hPa | 18.03 mm | - | 4 W/m² | - |
| 1777420826 | 18.33° C | 98% | 1013.4 hPa | 50.29 mm | - | 0 W/m² | - |
| 1777420516 | 18.33° C | 98% | 1012.5 hPa | 38.35 mm | - | 2 W/m² | - |
| 1777420213 | 18.33° C | 98% | 1013.2 hPa | 7.87 mm | - | 2 W/m² | - |
| 1777419907 | 18.33° C | 97% | 1013 hPa | 7.87 mm | - | 0 W/m² | - |
* Rain latest hour (hover to see other rain measurements)
** Current wind speed in m/s (hover to see current wind gust speed)